Location: Newark
(36.0797°N, 3.9744°E)
Time: 21:48:38
(UTC+00:00)

S-56A Canister/Altair - Visible Passes

Search period start: 11 December 2019 00:00
Search period end: 21 December 2019 00:00
Orbit: 633 x 2499 km, 38.9° (Epoch: 10 December)

Date Brightness Start Highest point End Pass type
(mag) Time Alt. Az. Time Alt. Az. Time Alt. Az.
11 Dec 11.5 17:52:29 10° W 17:57:49 14° WSW 18:02:23 10° SSW visible
12 Dec 11.4 17:17:29 10° W 17:25:05 19° SW 17:31:17 10° SSW visible
13 Dec 11.6 06:13:29 10° S 06:22:12 26° SE 06:32:46 10° E visible
13 Dec 11.4 16:42:54 10° W 16:52:16 24° SW 16:59:42 10° S visible
14 Dec 11.6 05:41:42 10° S 05:49:14 21° SE 05:58:16 10° E visible
15 Dec 11.6 05:10:18 10° SSE 05:16:21 17° SE 05:23:27 10° E visible
16 Dec 11.7 04:39:39 10° SE 04:43:33 13° ESE 04:47:54 10° E visible
17 Dec 10.9 06:04:06 10° SSW 06:13:31 42° SE 06:26:13 10° ENE visible
18 Dec 10.9 05:31:52 10° SSW 05:40:29 36° SE 05:52:10 10° ENE visible
19 Dec 10.9 04:59:48 10° S 05:07:35 31° SE 05:18:02 10° ENE visible
20 Dec 10.9 04:27:54 10° S 04:34:46 25° SE 04:43:48 10° E visible
